Time,TemperatureF,DewpointF,PressureIn,WindDirection,WindDirectionDegrees,WindSpeedMPH,WindSpeedGustMPH,Humidity,HourlyPrecipIn,Conditions,Clouds,dailyrainin,SoftwareType,DateUTC
2014-02-26 00:00:00,59.5,57.5,29.91,NNW,338,6.0,6.0,93,0.30,RA,,0.00,WeatherDisplay:10.37,2014-02-26 06:00:00,
2014-02-26 00:05:00,59.4,57.3,29.91,North,0,6.9,6.9,93,0.33,RA,,0.03,WeatherDisplay:10.37,2014-02-26 06:05:00,
2014-02-26 00:10:00,59.2,57.2,29.91,North,0,6.9,6.9,93,0.33,RA,,0.03,WeatherDisplay:10.37,2014-02-26 06:10:00,
2014-02-26 00:15:00,59.0,57.0,29.91,North,0,9.2,9.2,93,0.42,RA,,0.12,WeatherDisplay:10.37,2014-02-26 06:15:00,
2014-02-26 00:20:00,58.6,56.9,29.91,North,0,10.0,10.0,94,0.42,RA,,0.16,WeatherDisplay:10.37,2014-02-26 06:20:00,
2014-02-26 00:25:00,58.5,56.7,29.91,NNW,338,6.9,6.9,94,0.46,RA,,0.20,WeatherDisplay:10.37,2014-02-26 06:25:00,
2014-02-26 00:30:00,58.1,56.4,29.91,NE,45,4.9,4.9,94,0.54,RA,,0.28,WeatherDisplay:10.37,2014-02-26 06:30:00,
2014-02-26 00:35:00,57.9,56.2,29.91,North,0,6.9,6.9,94,0.00,RA,,0.33,WeatherDisplay:10.37,2014-02-26 06:35:00,
2014-02-26 00:40:00,57.7,56.0,29.91,NNE,22,4.6,4.6,94,0.00,RA,,0.33,WeatherDisplay:10.37,2014-02-26 06:40:00,
2014-02-26 00:45:00,57.7,56.0,29.88,NW,315,5.8,5.8,94,0.00,,,0.33,WeatherDisplay:10.37,2014-02-26 06:45:00,
2014-02-26 00:50:00,57.6,55.8,29.88,North,0,5.8,5.8,94,0.50,CLR,,0.33,WeatherDisplay:10.37,2014-02-26 06:50:00,
2014-02-26 00:55:00,57.6,55.8,29.88,NNW,338,0.0,0.0,94,0.43,CLR,,0.33,WeatherDisplay:10.37,2014-02-26 06:55:00,
2014-02-26 01:00:00,57.6,56.1,29.85,SW,225,0.0,0.0,95,0.33,CLR,,0.33,WeatherDisplay:10.37,2014-02-26 07:00:00,
2014-02-26 01:05:00,57.6,56.1,29.85,East,90,0.0,0.0,95,0.30,CLR,,0.33,WeatherDisplay:10.37,2014-02-26 07:05:00,
2014-02-26 01:10:00,57.7,56.3,29.85,SE,135,0.0,0.0,95,0.30,CLR,,0.33,WeatherDisplay:10.37,2014-02-26 07:10:00,
2014-02-26 01:15:00,57.6,56.1,29.85,NNW,338,2.3,2.3,95,0.21,CLR,,0.33,WeatherDisplay:10.37,2014-02-26 07:15:00,
2014-02-26 01:19:00,57.7,56.6,29.85,SSW,202,0.0,0.0,96,0.17,CLR,,0.33,WeatherDisplay:10.37,2014-02-26 07:19:00,
2014-02-26 01:24:00,57.7,56.6,29.85,West,270,0.0,0.0,96,0.13,CLR,,0.33,WeatherDisplay:10.37,2014-02-26 07:24:00,
2014-02-26 01:29:00,57.7,56.6,29.88,North,0,0.0,0.0,96,0.09,CLR,,0.33,WeatherDisplay:10.37,2014-02-26 07:29:00,
2014-02-26 01:34:00,57.6,56.4,29.88,North,0,0.0,0.0,96,0.05,CLR,,0.33,WeatherDisplay:10.37,2014-02-26 07:34:00,
2014-02-26 01:39:00,57.6,56.4,29.88,North,0,0.0,0.0,96,0.00,CLR,,0.33,WeatherDisplay:10.37,2014-02-26 07:39:00,
2014-02-26 01:44:00,57.6,56.4,29.85,North,0,4.6,4.6,96,0.00,CLR,,0.33,WeatherDisplay:10.37,2014-02-26 07:44:00,
2014-02-26 01:49:00,57.6,56.4,29.85,NNE,22,0.0,0.0,96,0.00,CLR,,0.33,WeatherDisplay:10.37,2014-02-26 07:49:00,
2014-02-26 01:54:00,57.6,56.4,29.85,North,0,0.0,0.0,96,0.00,CLR,,0.33,WeatherDisplay:10.37,2014-02-26 07:54:00,
2014-02-26 01:59:00,57.6,56.4,29.85,North,0,3.5,3.6,96,0.00,CLR,,0.33,WeatherDisplay:10.37,2014-02-26 07:59:00,
2014-02-26 02:04:00,57.4,56.2,29.85,North,0,0.0,0.0,96,0.00,CLR,,0.33,WeatherDisplay:10.37,2014-02-26 08:04:00,
2014-02-26 02:09:00,57.4,56.5,29.85,NNE,22,6.9,6.9,97,0.00,CLR,,0.33,WeatherDisplay:10.37,2014-02-26 08:09:00,
2014-02-26 02:14:00,57.4,56.5,29.83,NW,315,3.5,3.5,97,0.00,CLR,,0.33,WeatherDisplay:10.37,2014-02-26 08:14:00,
2014-02-26 02:19:00,57.4,56.5,29.83,North,0,4.6,4.6,97,0.00,CLR,,0.33,WeatherDisplay:10.37,2014-02-26 08:19:00,
2014-02-26 02:24:00,57.4,56.5,29.83,North,0,4.6,4.6,97,0.00,CLR,,0.33,WeatherDisplay:10.37,2014-02-26 08:24:00,
2014-02-26 02:29:00,57.2,56.4,29.85,NNW,338,5.8,5.8,97,0.04,RA,,0.37,WeatherDisplay:10.37,2014-02-26 08:29:00,
2014-02-26 02:34:00,57.2,56.4,29.85,NE,45,2.3,0.0,97,0.04,RA,,0.37,WeatherDisplay:10.37,2014-02-26 08:34:00,
2014-02-26 02:39:00,57.2,56.4,29.85,NNW,338,4.6,4.6,97,0.04,,,0.37,WeatherDisplay:10.37,2014-02-26 08:39:00,
2014-02-26 02:44:00,57.0,56.2,29.85,NNE,22,3.8,3.8,97,0.04,CLR,,0.37,WeatherDisplay:10.37,2014-02-26 08:44:00,
2014-02-26 02:49:00,57.0,56.2,29.85,North,0,8.1,8.1,97,0.04,CLR,,0.37,WeatherDisplay:10.37,2014-02-26 08:49:00,
2014-02-26 02:54:00,56.8,56.0,29.85,NNW,338,7.4,7.4,97,0.04,CLR,,0.37,WeatherDisplay:10.37,2014-02-26 08:54:00,
2014-02-26 02:59:00,56.7,55.8,29.85,NNE,22,5.8,5.9,97,0.04,CLR,,0.37,WeatherDisplay:10.37,2014-02-26 08:59:00,
2014-02-26 03:04:00,56.3,55.2,29.85,North,0,10.4,10.4,96,0.04,CLR,,0.37,WeatherDisplay:10.37,2014-02-26 09:04:00,
2014-02-26 03:09:00,56.1,55.0,29.85,NNW,338,10.4,10.4,96,0.04,CLR,,0.37,WeatherDisplay:10.37,2014-02-26 09:09:00,
2014-02-26 03:14:00,55.8,54.3,29.85,North,0,17.3,17.3,95,0.04,CLR,,0.37,WeatherDisplay:10.37,2014-02-26 09:14:00,
2014-02-26 03:19:00,55.2,53.8,29.85,NNW,338,9.2,9.2,95,0.04,CLR,,0.37,WeatherDisplay:10.37,2014-02-26 09:19:00,
2014-02-26 03:24:00,54.9,53.2,29.85,North,0,10.4,10.4,94,0.04,CLR,,0.37,WeatherDisplay:10.37,2014-02-26 09:24:00,
2014-02-26 03:29:00,54.5,52.8,29.85,NNE,22,5.9,5.9,94,0.00,CLR,,0.37,WeatherDisplay:10.37,2014-02-26 09:29:00,
2014-02-26 03:34:00,54.5,52.8,29.85,North,0,6.9,6.9,94,0.00,CLR,,0.37,WeatherDisplay:10.37,2014-02-26 09:34:00,
2014-02-26 03:39:00,54.3,52.6,29.85,North,0,7.8,7.8,94,0.00,CLR,,0.37,WeatherDisplay:10.37,2014-02-26 09:39:00,
2014-02-26 03:44:00,54.1,52.5,29.85,NNW,338,10.4,10.4,94,0.00,CLR,,0.37,WeatherDisplay:10.37,2014-02-26 09:44:00,
2014-02-26 03:49:00,54.0,52.3,29.85,NNE,22,5.8,5.8,94,0.04,RA,,0.41,WeatherDisplay:10.37,2014-02-26 09:49:00,
2014-02-26 03:54:00,53.8,52.1,29.85,West,270,6.9,6.9,94,0.04,RA,,0.41,WeatherDisplay:10.37,2014-02-26 09:54:00,
2014-02-26 03:59:00,53.8,52.1,29.85,ENE,68,5.8,5.8,94,0.04,CLR,,0.41,WeatherDisplay:10.37,2014-02-26 09:59:00,
2014-02-26 04:04:00,53.6,52.2,29.85,North,0,5.8,5.9,95,0.04,CLR,,0.41,WeatherDisplay:10.37,2014-02-26 10:04:00,
2014-02-26 04:09:00,53.4,52.0,29.85,North,0,6.2,6.2,95,0.04,CLR,,0.41,WeatherDisplay:10.37,2014-02-26 10:09:00,
2014-02-26 04:14:00,53.4,52.0,29.88,NNE,22,5.8,5.8,95,0.04,CLR,,0.41,WeatherDisplay:10.37,2014-02-26 10:14:00,
2014-02-26 04:19:00,53.2,51.8,29.88,NNE,22,4.6,4.6,95,0.04,CLR,,0.41,WeatherDisplay:10.37,2014-02-26 10:19:00,
2014-02-26 04:24:00,53.1,51.7,29.88,North,0,5.8,5.8,95,0.08,RA,,0.45,WeatherDisplay:10.37,2014-02-26 10:24:00,
2014-02-26 04:29:00,52.9,51.5,29.91,North,0,8.7,8.7,95,0.08,RA,,0.45,WeatherDisplay:10.37,2014-02-26 10:29:00,
2014-02-26 04:34:00,52.9,51.5,29.91,NNE,22,6.9,6.9,95,0.08,CLR,,0.45,WeatherDisplay:10.37,2014-02-26 10:34:00,
2014-02-26 04:39:00,52.7,51.3,29.91,NNE,22,5.8,5.8,95,0.12,RA,,0.50,WeatherDisplay:10.37,2014-02-26 10:39:00,
2014-02-26 04:44:00,52.5,51.1,29.94,North,0,6.9,6.9,95,0.12,RA,,0.50,WeatherDisplay:10.37,2014-02-26 10:44:00,
2014-02-26 04:49:00,52.3,51.0,29.94,North,0,9.2,9.2,95,0.08,,,0.50,WeatherDisplay:10.37,2014-02-26 10:49:00,
2014-02-26 04:54:00,52.2,50.8,29.94,NNE,22,10.0,10.0,95,0.08,CLR,,0.50,WeatherDisplay:10.37,2014-02-26 10:54:00,
2014-02-26 04:59:00,52.2,50.8,29.88,North,0,6.9,6.9,95,0.08,CLR,,0.50,WeatherDisplay:10.37,2014-02-26 10:59:00,
2014-02-26 05:04:00,52.2,50.8,29.88,North,0,7.8,7.8,95,0.08,CLR,,0.50,WeatherDisplay:10.37,2014-02-26 11:04:00,
2014-02-26 05:09:00,52.2,50.8,29.88,NNE,22,8.1,8.1,95,0.08,CLR,,0.50,WeatherDisplay:10.37,2014-02-26 11:09:00,
2014-02-26 05:14:00,52.2,50.8,29.91,NNE,22,5.8,5.8,95,0.08,CLR,,0.50,WeatherDisplay:10.37,2014-02-26 11:14:00,
2014-02-26 05:19:00,52.0,50.6,29.91,NNW,338,12.3,12.3,95,0.12,RA,,0.54,WeatherDisplay:10.37,2014-02-26 11:19:00,
2014-02-26 05:24:00,51.6,50.2,29.91,North,0,8.1,8.1,95,0.08,RA,,0.54,WeatherDisplay:10.37,2014-02-26 11:24:00,
2014-02-26 05:29:00,51.3,49.6,29.94,North,0,8.1,8.1,94,0.08,,,0.54,WeatherDisplay:10.37,2014-02-26 11:29:00,
2014-02-26 05:34:00,50.7,49.1,29.94,NNW,338,9.2,9.2,94,0.12,RA,,0.57,WeatherDisplay:10.37,2014-02-26 11:34:00,
2014-02-26 05:39:00,50.4,48.4,29.94,NNW,338,10.2,10.2,93,0.13,RA,,0.67,WeatherDisplay:10.37,2014-02-26 11:39:00,
2014-02-26 05:44:00,49.8,47.6,29.97,NNW,338,5.8,5.8,92,0.29,RA,,0.79,WeatherDisplay:10.37,2014-02-26 11:44:00,
2014-02-26 05:49:00,49.1,46.9,29.97,North,0,8.1,8.1,92,0.33,RA,,0.83,WeatherDisplay:10.37,2014-02-26 11:49:00,
2014-02-26 05:54:00,48.6,45.8,29.97,NNE,22,13.0,13.0,90,0.33,RA,,0.83,WeatherDisplay:10.37,2014-02-26 11:54:00,
2014-02-26 05:59:00,48.0,44.9,29.94,North,0,17.3,17.3,89,0.33,,,0.83,WeatherDisplay:10.37,2014-02-26 11:59:00,
2014-02-26 06:04:00,47.7,44.6,29.94,NNE,22,12.1,12.1,89,0.33,CLR,,0.83,WeatherDisplay:10.37,2014-02-26 12:04:00,
2014-02-26 06:09:00,47.5,44.7,29.94,North,0,15.0,15.0,90,0.33,CLR,,0.83,WeatherDisplay:10.37,2014-02-26 12:09:00,
2014-02-26 06:14:00,47.3,44.5,29.94,NNE,22,10.4,10.4,90,0.33,CLR,,0.83,WeatherDisplay:10.37,2014-02-26 12:14:00,
2014-02-26 06:19:00,47.1,44.6,29.94,NNW,338,8.1,8.1,91,0.29,CLR,,0.83,WeatherDisplay:10.37,2014-02-26 12:19:00,
2014-02-26 06:24:00,47.1,44.9,29.94,North,0,10.7,10.7,92,0.29,CLR,,0.83,WeatherDisplay:10.37,2014-02-26 12:24:00,
2014-02-26 06:29:00,46.9,44.7,29.97,North,0,12.7,12.7,92,0.29,CLR,,0.83,WeatherDisplay:10.37,2014-02-26 12:29:00,
2014-02-26 06:35:00,46.9,45.0,29.97,North,0,5.8,5.8,93,0.25,CLR,,0.83,WeatherDisplay:10.37,2014-02-26 12:35:00,
2014-02-26 06:40:00,46.8,44.8,29.97,North,0,9.2,9.2,93,0.20,CLR,,0.83,WeatherDisplay:10.37,2014-02-26 12:40:00,
2014-02-26 06:45:00,46.8,44.8,29.97,NNE,22,11.5,11.5,93,0.04,CLR,,0.83,WeatherDisplay:10.37,2014-02-26 12:45:00,
2014-02-26 06:50:00,46.6,44.7,29.97,ENE,68,9.7,9.7,93,0.00,CLR,,0.83,WeatherDisplay:10.37,2014-02-26 12:50:00,
2014-02-26 06:55:00,46.6,44.7,29.97,North,0,8.1,8.1,93,0.00,CLR,,0.83,WeatherDisplay:10.37,2014-02-26 12:55:00,
2014-02-26 07:00:00,46.2,44.3,29.97,North,0,8.1,8.1,93,0.05,RA,,0.88,WeatherDisplay:10.37,2014-02-26 13:00:00,
2014-02-26 07:05:00,46.2,44.3,29.97,North,0,10.4,10.4,93,0.05,RA,,0.88,WeatherDisplay:10.37,2014-02-26 13:05:00,
2014-02-26 07:10:00,46.0,43.8,29.97,NNE,22,17.3,17.3,92,0.05,CLR,,0.88,WeatherDisplay:10.37,2014-02-26 13:10:00,
2014-02-26 07:15:00,45.9,43.7,29.97,North,0,6.9,6.9,92,0.05,CLR,,0.88,WeatherDisplay:10.37,2014-02-26 13:15:00,
2014-02-26 07:20:00,45.9,43.7,29.97,NE,45,11.5,11.5,92,0.05,CLR,,0.88,WeatherDisplay:10.37,2014-02-26 13:20:00,
2014-02-26 07:25:00,45.9,43.7,29.97,North,0,8.1,8.1,92,0.05,CLR,,0.88,WeatherDisplay:10.37,2014-02-26 13:25:00,
2014-02-26 07:30:00,45.9,43.7,30.00,North,0,12.7,12.7,92,0.05,CLR,,0.88,WeatherDisplay:10.37,2014-02-26 13:30:00,
2014-02-26 07:35:00,45.5,43.3,30.00,NNE,22,12.7,12.7,92,0.05,CLR,,0.88,WeatherDisplay:10.37,2014-02-26 13:35:00,
2014-02-26 07:40:00,45.5,43.0,30.00,NNE,22,10.5,10.5,91,0.05,CLR,,0.88,WeatherDisplay:10.37,2014-02-26 13:40:00,
2014-02-26 07:45:00,45.3,42.6,29.97,North,0,9.2,9.2,90,0.05,CLR,,0.88,WeatherDisplay:10.37,2014-02-26 13:45:00,
2014-02-26 07:50:00,45.3,42.8,29.97,North,0,7.8,7.8,91,0.05,CLR,,0.88,WeatherDisplay:10.37,2014-02-26 13:50:00,
2014-02-26 07:55:00,45.1,42.7,29.97,North,0,13.8,13.8,91,0.05,CLR,,0.88,WeatherDisplay:10.37,2014-02-26 13:55:00,
2014-02-26 08:00:00,44.8,42.0,29.97,NNE,22,8.5,8.5,90,0.00,CLR,,0.88,WeatherDisplay:10.37,2014-02-26 14:00:00,
2014-02-26 08:05:00,44.8,42.0,29.97,North,0,12.5,12.5,90,0.00,CLR,,0.88,WeatherDisplay:10.37,2014-02-26 14:05:00,
2014-02-26 08:10:00,44.4,41.4,29.97,NNE,22,8.1,8.1,89,0.00,CLR,,0.88,WeatherDisplay:10.37,2014-02-26 14:10:00,
2014-02-26 08:15:00,44.2,41.2,30.03,North,0,12.1,12.1,89,0.00,CLR,,0.88,WeatherDisplay:10.37,2014-02-26 14:15:00,
2014-02-26 08:20:00,44.1,41.0,30.03,North,0,15.0,15.0,89,0.00,CLR,,0.88,WeatherDisplay:10.37,2014-02-26 14:20:00,
2014-02-26 08:25:00,44.1,41.0,30.03,WNW,292,12.7,12.7,89,0.00,CLR,,0.88,WeatherDisplay:10.37,2014-02-26 14:25:00,
2014-02-26 08:30:00,44.1,41.3,30.03,NNE,22,8.7,8.7,90,0.00,CLR,,0.88,WeatherDisplay:10.37,2014-02-26 14:30:00,
2014-02-26 08:35:00,44.1,41.3,30.03,NNW,338,10.5,10.5,90,0.00,CLR,,0.88,WeatherDisplay:10.37,2014-02-26 14:35:00,
2014-02-26 08:40:00,43.9,41.1,30.03,North,0,10.2,10.2,90,0.00,CLR,,0.88,WeatherDisplay:10.37,2014-02-26 14:40:00,
2014-02-26 08:45:00,43.7,41.0,30.03,North,0,8.1,8.1,90,0.00,CLR,,0.88,WeatherDisplay:10.37,2014-02-26 14:45:00,
2014-02-26 08:50:00,43.7,41.0,30.03,NNE,22,8.1,8.1,90,0.00,CLR,,0.88,WeatherDisplay:10.37,2014-02-26 14:50:00,
2014-02-26 08:55:00,43.7,41.2,30.03,North,0,6.9,6.9,91,0.00,CLR,,0.88,WeatherDisplay:10.37,2014-02-26 14:55:00,
2014-02-26 09:00:00,43.7,41.2,30.03,North,0,5.8,5.8,91,0.00,CLR,,0.88,WeatherDisplay:10.37,2014-02-26 15:00:00,
2014-02-26 09:05:00,43.5,40.8,30.03,NNE,22,10.4,10.4,90,0.00,CLR,,0.88,WeatherDisplay:10.37,2014-02-26 15:05:00,
2014-02-26 09:10:00,43.5,41.1,30.03,NNE,22,5.8,5.8,91,0.00,CLR,,0.88,WeatherDisplay:10.37,2014-02-26 15:10:00,
2014-02-26 09:15:00,43.5,41.1,30.06,North,0,4.6,4.6,91,0.00,CLR,,0.88,WeatherDisplay:10.37,2014-02-26 15:15:00,
2014-02-26 09:20:00,43.5,41.1,30.06,North,0,6.9,6.9,91,0.00,CLR,,0.88,WeatherDisplay:10.37,2014-02-26 15:20:00,
2014-02-26 09:25:00,43.5,41.1,30.06,North,0,4.6,4.6,91,0.00,CLR,,0.88,WeatherDisplay:10.37,2014-02-26 15:25:00,
2014-02-26 09:30:00,43.5,41.4,30.06,North,0,9.2,9.2,92,0.00,CLR,,0.88,WeatherDisplay:10.37,2014-02-26 15:30:00,
2014-02-26 09:35:00,43.5,41.4,30.06,North,0,8.1,8.1,92,0.00,CLR,,0.88,WeatherDisplay:10.37,2014-02-26 15:35:00,
2014-02-26 09:40:00,43.5,41.4,30.06,NNE,22,6.9,6.9,92,0.00,CLR,,0.88,WeatherDisplay:10.37,2014-02-26 15:40:00,
2014-02-26 09:45:00,43.3,41.2,30.06,North,0,11.5,11.5,92,0.00,CLR,,0.88,WeatherDisplay:10.37,2014-02-26 15:45:00,
2014-02-26 09:50:00,43.3,40.9,30.06,North,0,8.1,8.1,91,0.00,CLR,,0.88,WeatherDisplay:10.37,2014-02-26 15:50:00,
2014-02-26 09:55:00,43.3,40.9,30.06,North,0,11.8,11.8,91,0.00,CLR,,0.88,WeatherDisplay:10.37,2014-02-26 15:55:00,
2014-02-26 10:00:00,43.3,40.6,30.06,North,0,12.7,12.7,90,0.00,CLR,,0.88,WeatherDisplay:10.37,2014-02-26 16:00:00,
2014-02-26 10:05:00,43.5,40.8,30.06,North,0,8.1,8.1,90,0.00,CLR,,0.88,WeatherDisplay:10.37,2014-02-26 16:05:00,
2014-02-26 10:10:00,43.7,41.0,30.06,North,0,7.8,7.8,90,0.00,CLR,,0.88,WeatherDisplay:10.37,2014-02-26 16:10:00,
2014-02-26 10:15:00,43.5,40.8,30.06,NNW,338,9.2,9.2,90,0.00,CLR,,0.88,WeatherDisplay:10.37,2014-02-26 16:15:00,
2014-02-26 10:20:00,43.2,40.1,30.06,NNE,22,8.1,8.1,89,0.00,CLR,,0.88,WeatherDisplay:10.37,2014-02-26 16:20:00,
2014-02-26 10:25:00,43.2,40.1,30.06,North,0,10.4,10.4,89,0.00,CLR,,0.88,WeatherDisplay:10.37,2014-02-26 16:25:00,
2014-02-26 10:30:00,43.2,39.8,30.03,North,0,10.4,10.4,88,0.00,CLR,,0.88,WeatherDisplay:10.37,2014-02-26 16:30:00,
2014-02-26 10:35:00,43.3,39.4,30.03,NNE,22,16.8,16.8,86,0.00,CLR,,0.88,WeatherDisplay:10.37,2014-02-26 16:35:00,
2014-02-26 10:40:00,43.5,39.3,30.03,NNW,338,13.8,13.8,85,0.00,CLR,,0.88,WeatherDisplay:10.37,2014-02-26 16:40:00,
2014-02-26 10:45:00,43.7,38.3,30.03,North,0,16.8,16.8,81,0.00,CLR,,0.88,WeatherDisplay:10.37,2014-02-26 16:45:00,
2014-02-26 10:50:00,43.7,37.9,30.03,NNE,22,12.7,12.7,80,0.00,CLR,,0.88,WeatherDisplay:10.37,2014-02-26 16:50:00,
2014-02-26 10:55:00,44.1,37.6,30.03,NE,45,15.0,15.0,78,0.00,CLR,,0.88,WeatherDisplay:10.37,2014-02-26 16:55:00,
2014-02-26 11:00:00,44.6,38.5,30.06,NW,315,7.1,7.1,79,0.00,CLR,,0.88,WeatherDisplay:10.37,2014-02-26 17:00:00,
2014-02-26 11:05:00,44.6,37.2,30.06,NNW,338,10.4,10.4,75,0.00,CLR,,0.88,WeatherDisplay:10.37,2014-02-26 17:05:00,
2014-02-26 11:10:00,45.1,37.3,30.06,NNE,22,12.7,12.7,74,0.00,CLR,,0.88,WeatherDisplay:10.37,2014-02-26 17:10:00,
2014-02-26 11:15:00,45.5,37.3,30.06,North,0,10.4,10.4,73,0.00,CLR,,0.88,WeatherDisplay:10.37,2014-02-26 17:15:00,
2014-02-26 11:20:00,46.0,38.2,30.06,North,0,11.5,11.5,74,0.00,CLR,,0.88,WeatherDisplay:10.37,2014-02-26 17:20:00,
2014-02-26 11:25:00,46.2,38.4,30.06,NNE,22,9.2,9.2,74,0.00,CLR,,0.88,WeatherDisplay:10.37,2014-02-26 17:25:00,
2014-02-26 11:30:00,46.2,38.0,30.03,North,0,10.4,10.4,73,0.00,CLR,,0.88,WeatherDisplay:10.37,2014-02-26 17:30:00,
2014-02-26 11:35:00,46.6,38.4,30.03,NE,45,10.4,10.4,73,0.00,CLR,,0.88,WeatherDisplay:10.37,2014-02-26 17:35:00,
2014-02-26 11:40:00,46.6,37.7,30.03,SW,225,11.5,11.5,71,0.00,CLR,,0.88,WeatherDisplay:10.37,2014-02-26 17:40:00,
2014-02-26 11:45:00,46.9,38.4,30.06,North,0,6.9,6.9,72,0.00,CLR,,0.88,WeatherDisplay:10.37,2014-02-26 17:45:00,
2014-02-26 11:50:00,47.1,37.1,30.06,NNW,338,10.4,10.4,68,0.00,CLR,,0.88,WeatherDisplay:10.37,2014-02-26 17:50:00,
2014-02-26 11:55:00,47.7,37.2,30.06,North,0,9.2,9.2,67,0.00,CLR,,0.88,WeatherDisplay:10.37,2014-02-26 17:55:00,
2014-02-26 12:00:00,48.0,39.8,30.03,North,0,5.8,5.8,73,0.00,CLR,,0.88,WeatherDisplay:10.37,2014-02-26 18:00:00,
2014-02-26 12:05:00,47.5,38.2,30.03,NE,45,12.5,12.5,70,0.00,CLR,,0.88,WeatherDisplay:10.37,2014-02-26 18:05:00,
2014-02-26 12:10:00,47.3,38.4,30.03,North,0,6.9,6.9,71,0.00,CLR,,0.88,WeatherDisplay:10.37,2014-02-26 18:10:00,
2014-02-26 12:15:00,48.0,39.8,30.03,NNW,338,12.1,12.1,73,0.00,CLR,,0.88,WeatherDisplay:10.37,2014-02-26 18:15:00,
2014-02-26 12:21:00,47.7,38.0,30.03,NNW,338,11.5,11.5,69,0.00,CLR,,0.88,WeatherDisplay:10.37,2014-02-26 18:21:00,
2014-02-26 12:26:00,47.7,37.2,30.03,NNE,22,8.1,8.1,67,0.00,CLR,,0.88,WeatherDisplay:10.37,2014-02-26 18:26:00,
2014-02-26 12:31:00,47.7,37.6,30.03,North,0,5.8,5.8,68,0.00,CLR,,0.88,WeatherDisplay:10.37,2014-02-26 18:31:00,
2014-02-26 12:36:00,47.8,37.8,30.03,NNE,22,0.0,0.0,68,0.00,CLR,,0.88,WeatherDisplay:10.37,2014-02-26 18:36:00,
2014-02-26 12:41:00,48.0,35.2,30.03,North,0,13.8,13.8,61,0.00,CLR,,0.88,WeatherDisplay:10.37,2014-02-26 18:41:00,
2014-02-26 12:46:00,48.0,34.8,30.00,West,270,8.1,8.1,60,0.00,CLR,,0.88,WeatherDisplay:10.37,2014-02-26 18:46:00,
2014-02-26 12:51:00,48.4,36.4,30.00,North,0,0.0,0.0,63,0.00,CLR,,0.88,WeatherDisplay:10.37,2014-02-26 18:51:00,
2014-02-26 12:56:00,48.6,34.9,30.00,North,0,10.4,10.4,59,0.00,CLR,,0.88,WeatherDisplay:10.37,2014-02-26 18:56:00,
2014-02-26 13:01:00,48.9,36.9,29.97,North,0,5.8,5.8,63,0.00,CLR,,0.88,WeatherDisplay:10.37,2014-02-26 19:01:00,
2014-02-26 13:06:00,49.5,37.4,29.97,NNE,22,8.1,8.1,63,0.00,CLR,,0.88,WeatherDisplay:10.37,2014-02-26 19:06:00,
2014-02-26 13:11:00,50.2,37.7,29.97,North,0,8.1,8.1,62,0.00,CLR,,0.88,WeatherDisplay:10.37,2014-02-26 19:11:00,
2014-02-26 13:16:00,50.4,35.2,29.97,NE,45,8.1,8.1,56,0.00,CLR,,0.88,WeatherDisplay:10.37,2014-02-26 19:16:00,
2014-02-26 13:21:00,50.2,34.2,29.97,NNE,22,5.8,5.8,54,0.00,CLR,,0.88,WeatherDisplay:10.37,2014-02-26 19:21:00,
2014-02-26 13:26:00,50.4,33.4,29.97,NNW,338,13.0,13.0,52,0.00,CLR,,0.88,WeatherDisplay:10.37,2014-02-26 19:26:00,
2014-02-26 13:31:00,50.2,33.2,29.97,NNE,22,7.4,0.0,52,0.00,CLR,,0.88,WeatherDisplay:10.37,2014-02-26 19:31:00,
2014-02-26 13:36:00,49.8,31.4,29.97,NNW,338,9.2,9.2,49,0.00,CLR,,0.88,WeatherDisplay:10.37,2014-02-26 19:36:00,
2014-02-26 13:41:00,49.8,32.4,29.97,North,0,6.9,6.9,51,0.00,CLR,,0.88,WeatherDisplay:10.37,2014-02-26 19:41:00,
2014-02-26 13:46:00,50.0,32.1,29.97,NW,315,10.4,10.4,50,0.00,CLR,,0.88,WeatherDisplay:10.37,2014-02-26 19:46:00,
2014-02-26 13:51:00,50.2,32.7,29.97,North,0,0.0,1.6,51,0.00,CLR,,0.88,WeatherDisplay:10.37,2014-02-26 19:51:00,
2014-02-26 13:56:00,50.4,32.4,29.97,North,0,8.1,8.1,50,0.00,CLR,,0.88,WeatherDisplay:10.37,2014-02-26 19:56:00,
2014-02-26 14:01:00,50.0,30.5,29.97,North,0,12.7,12.7,47,0.00,CLR,,0.88,WeatherDisplay:10.37,2014-02-26 20:01:00,
2014-02-26 14:06:00,49.8,30.4,29.97,NNE,22,11.5,11.5,47,0.00,CLR,,0.88,WeatherDisplay:10.37,2014-02-26 20:06:00,
2014-02-26 14:11:00,49.8,29.3,29.97,North,0,9.8,9.8,45,0.00,CLR,,0.88,WeatherDisplay:10.37,2014-02-26 20:11:00,
2014-02-26 14:16:00,49.5,30.0,29.97,NNE,22,7.6,7.6,47,0.00,CLR,,0.88,WeatherDisplay:10.37,2014-02-26 20:16:00,
2014-02-26 14:21:00,49.1,29.7,29.97,NNE,22,12.7,12.7,47,0.00,CLR,,0.88,WeatherDisplay:10.37,2014-02-26 20:21:00,
2014-02-26 14:26:00,48.9,29.6,29.97,NNW,338,11.5,11.5,47,0.00,CLR,,0.88,WeatherDisplay:10.37,2014-02-26 20:26:00,
2014-02-26 14:31:00,48.6,27.6,29.97,North,0,13.8,13.8,44,0.00,CLR,,0.88,WeatherDisplay:10.37,2014-02-26 20:31:00,
2014-02-26 14:36:00,48.6,27.6,29.97,North,0,9.2,9.2,44,0.00,CLR,,0.88,WeatherDisplay:10.37,2014-02-26 20:36:00,
2014-02-26 14:41:00,48.9,29.6,29.97,ENE,68,8.1,0.0,47,0.00,CLR,,0.88,WeatherDisplay:10.37,2014-02-26 20:41:00,
2014-02-26 14:46:00,48.7,28.9,29.97,North,0,9.2,9.2,46,0.00,CLR,,0.88,WeatherDisplay:10.37,2014-02-26 20:46:00,
2014-02-26 14:51:00,48.7,28.3,29.97,NW,315,9.2,9.2,45,0.00,CLR,,0.88,WeatherDisplay:10.37,2014-02-26 20:51:00,
2014-02-26 14:56:00,48.2,27.3,29.97,North,0,15.0,15.0,44,0.00,CLR,,0.88,WeatherDisplay:10.37,2014-02-26 20:56:00,
2014-02-26 15:01:00,47.8,27.5,29.97,North,0,10.0,10.0,45,0.00,CLR,,0.88,WeatherDisplay:10.37,2014-02-26 21:01:00,
2014-02-26 15:06:00,47.5,26.1,29.97,NNW,338,11.5,11.5,43,0.00,CLR,,0.88,WeatherDisplay:10.37,2014-02-26 21:06:00,
2014-02-26 15:11:00,47.5,27.2,29.97,NNE,22,8.1,8.1,45,0.00,CLR,,0.88,WeatherDisplay:10.37,2014-02-26 21:11:00,
2014-02-26 15:16:00,47.7,28.4,29.97,NNE,22,8.1,8.1,47,0.00,CLR,,0.88,WeatherDisplay:10.37,2014-02-26 21:16:00,
2014-02-26 15:21:00,47.7,26.2,29.97,North,0,6.9,6.9,43,0.00,CLR,,0.88,WeatherDisplay:10.37,2014-02-26 21:21:00,
2014-02-26 15:26:00,47.5,27.2,29.97,North,0,9.2,9.2,45,0.00,CLR,,0.88,WeatherDisplay:10.37,2014-02-26 21:26:00,
2014-02-26 15:31:00,47.3,26.5,29.97,North,0,9.4,9.4,44,0.00,CLR,,0.88,WeatherDisplay:10.37,2014-02-26 21:31:00,
2014-02-26 15:36:00,47.1,25.7,29.97,NNW,338,9.2,9.2,43,0.00,CLR,,0.88,WeatherDisplay:10.37,2014-02-26 21:36:00,
2014-02-26 15:41:00,46.8,25.4,29.97,North,0,14.5,14.5,43,0.00,CLR,,0.88,WeatherDisplay:10.37,2014-02-26 21:41:00,
2014-02-26 15:46:00,46.6,24.7,29.94,North,0,10.7,10.7,42,0.00,CLR,,0.88,WeatherDisplay:10.37,2014-02-26 21:46:00,
2014-02-26 15:51:00,46.8,26.5,29.94,NNW,338,9.2,9.2,45,0.00,CLR,,0.88,WeatherDisplay:10.37,2014-02-26 21:51:00,
2014-02-26 15:57:00,46.9,27.7,29.94,North,0,3.5,3.5,47,0.00,CLR,,0.88,WeatherDisplay:10.37,2014-02-26 21:57:00,
2014-02-26 16:02:00,46.9,26.1,29.97,NNE,22,3.5,3.5,44,0.00,CLR,,0.88,WeatherDisplay:10.37,2014-02-26 22:02:00,
2014-02-26 16:07:00,46.9,26.7,29.97,North,0,12.7,0.0,45,0.00,CLR,,0.88,WeatherDisplay:10.37,2014-02-26 22:07:00,
2014-02-26 16:12:00,46.9,25.6,29.97,North,0,9.2,9.2,43,0.00,CLR,,0.88,WeatherDisplay:10.37,2014-02-26 22:12:00,
2014-02-26 16:17:00,46.8,24.9,29.97,North,0,9.2,9.2,42,0.00,CLR,,0.88,WeatherDisplay:10.37,2014-02-26 22:17:00,
2014-02-26 16:22:00,46.6,24.7,29.97,NNW,338,8.1,8.1,42,0.00,CLR,,0.88,WeatherDisplay:10.37,2014-02-26 22:22:00,
2014-02-26 16:27:00,46.4,24.5,29.97,North,0,8.1,8.1,42,0.00,CLR,,0.88,WeatherDisplay:10.37,2014-02-26 22:27:00,
2014-02-26 16:32:00,46.2,24.9,29.97,North,0,9.2,9.2,43,0.00,CLR,,0.88,WeatherDisplay:10.37,2014-02-26 22:32:00,
2014-02-26 16:37:00,46.2,24.9,29.97,NNE,22,4.6,4.6,43,0.00,CLR,,0.88,WeatherDisplay:10.37,2014-02-26 22:37:00,
2014-02-26 16:42:00,45.9,24.0,29.97,NNE,22,5.8,5.8,42,0.00,CLR,,0.88,WeatherDisplay:10.37,2014-02-26 22:42:00,
2014-02-26 16:47:00,45.7,23.9,30.00,North,0,9.2,9.2,42,0.00,CLR,,0.88,WeatherDisplay:10.37,2014-02-26 22:47:00,
2014-02-26 16:52:00,45.5,23.7,30.00,NE,45,6.9,6.9,42,0.00,CLR,,0.88,WeatherDisplay:10.37,2014-02-26 22:52:00,
2014-02-26 16:57:00,45.3,23.0,30.00,NNW,338,8.1,8.1,41,0.00,CLR,,0.88,WeatherDisplay:10.37,2014-02-26 22:57:00,
2014-02-26 17:02:00,45.1,23.4,30.03,NE,45,4.6,4.6,42,0.00,CLR,,0.88,WeatherDisplay:10.37,2014-02-26 23:02:00,
2014-02-26 17:07:00,45.1,23.9,30.03,North,0,8.1,8.1,43,0.00,CLR,,0.88,WeatherDisplay:10.37,2014-02-26 23:07:00,
2014-02-26 17:12:00,44.8,23.1,30.03,NNE,22,5.8,5.8,42,0.00,CLR,,0.88,WeatherDisplay:10.37,2014-02-26 23:12:00,
2014-02-26 17:17:00,44.8,21.9,30.03,North,0,9.2,9.2,40,0.00,CLR,,0.88,WeatherDisplay:10.37,2014-02-26 23:17:00,
2014-02-26 17:22:00,44.6,22.3,30.03,North,0,5.6,5.6,41,0.00,CLR,,0.88,WeatherDisplay:10.37,2014-02-26 23:22:00,
2014-02-26 17:27:00,44.4,22.7,30.03,North,0,4.0,0.0,42,0.00,CLR,,0.88,WeatherDisplay:10.37,2014-02-26 23:27:00,
2014-02-26 17:32:00,44.2,22.6,30.03,NNW,338,7.1,7.1,42,0.00,CLR,,0.88,WeatherDisplay:10.37,2014-02-26 23:32:00,
2014-02-26 17:37:00,44.2,22.6,30.03,North,0,5.8,5.8,42,0.00,CLR,,0.88,WeatherDisplay:10.37,2014-02-26 23:37:00,
2014-02-26 17:42:00,44.1,22.4,30.03,North,0,0.0,0.0,42,0.00,CLR,,0.88,WeatherDisplay:10.37,2014-02-26 23:42:00,
2014-02-26 17:47:00,44.1,23.0,30.03,NNW,338,0.0,0.0,43,0.00,CLR,,0.88,WeatherDisplay:10.37,2014-02-26 23:47:00,
2014-02-26 17:52:00,43.9,22.2,30.03,North,0,4.6,4.6,42,0.00,CLR,,0.88,WeatherDisplay:10.37,2014-02-26 23:52:00,
2014-02-26 17:57:00,43.7,22.6,30.03,North,0,5.8,5.8,43,0.00,CLR,,0.88,WeatherDisplay:10.37,2014-02-26 23:57:00,
2014-02-26 18:02:00,43.7,21.5,30.03,North,0,6.9,6.9,41,0.00,CLR,,0.88,WeatherDisplay:10.37,2014-02-27 00:02:00,
2014-02-26 18:07:00,43.5,21.3,30.03,North,0,6.9,6.9,41,0.00,CLR,,0.88,WeatherDisplay:10.37,2014-02-27 00:07:00,
2014-02-26 18:12:00,43.3,21.8,30.03,North,0,5.8,5.8,42,0.00,CLR,,0.88,WeatherDisplay:10.37,2014-02-27 00:12:00,
2014-02-26 18:17:00,43.3,22.3,30.03,NNE,22,5.8,5.8,43,0.00,CLR,,0.88,WeatherDisplay:10.37,2014-02-27 00:17:00,
2014-02-26 18:22:00,43.2,22.1,30.03,NNW,338,2.3,0.0,43,0.00,CLR,,0.88,WeatherDisplay:10.37,2014-02-27 00:22:00,
2014-02-26 18:27:00,43.0,22.0,30.03,North,0,3.5,3.5,43,0.00,CLR,,0.88,WeatherDisplay:10.37,2014-02-27 00:27:00,
2014-02-26 18:32:00,42.8,21.8,30.03,NNE,22,0.0,0.0,43,0.00,CLR,,0.88,WeatherDisplay:10.37,2014-02-27 00:32:00,
2014-02-26 18:37:00,42.8,21.3,30.03,North,0,0.0,0.0,42,0.00,CLR,,0.88,WeatherDisplay:10.37,2014-02-27 00:37:00,
2014-02-26 18:42:00,42.6,21.1,30.03,NNW,338,8.1,8.1,42,0.00,CLR,,0.88,WeatherDisplay:10.37,2014-02-27 00:42:00,
2014-02-26 18:47:00,42.6,21.7,30.03,North,0,4.6,0.0,43,0.00,CLR,,0.88,WeatherDisplay:10.37,2014-02-27 00:47:00,
2014-02-26 18:52:00,42.4,22.0,30.03,NNW,338,4.6,4.6,44,0.00,CLR,,0.88,WeatherDisplay:10.37,2014-02-27 00:52:00,
2014-02-26 18:57:00,42.4,22.6,30.03,NNE,22,3.5,3.5,45,0.00,CLR,,0.88,WeatherDisplay:10.37,2014-02-27 00:57:00,
2014-02-26 19:02:00,42.4,22.0,30.03,North,0,8.1,8.1,44,0.00,CLR,,0.88,WeatherDisplay:10.37,2014-02-27 01:02:00,
2014-02-26 19:07:00,42.3,21.3,30.03,NNE,22,8.1,8.1,43,0.00,CLR,,0.88,WeatherDisplay:10.37,2014-02-27 01:07:00,
2014-02-26 19:12:00,42.1,20.6,30.03,North,0,8.1,8.1,42,0.00,CLR,,0.88,WeatherDisplay:10.37,2014-02-27 01:12:00,
2014-02-26 19:17:00,41.9,19.9,30.06,North,0,6.9,6.9,41,0.00,CLR,,0.88,WeatherDisplay:10.37,2014-02-27 01:17:00,
2014-02-26 19:22:00,41.7,20.3,30.06,NNE,22,5.8,5.8,42,0.00,CLR,,0.88,WeatherDisplay:10.37,2014-02-27 01:22:00,
2014-02-26 19:27:00,41.5,20.1,30.06,NNW,338,7.1,7.1,42,0.00,CLR,,0.88,WeatherDisplay:10.37,2014-02-27 01:27:00,
2014-02-26 19:32:00,41.4,19.4,30.06,NNW,338,5.8,5.8,41,0.00,CLR,,0.88,WeatherDisplay:10.37,2014-02-27 01:32:00,
2014-02-26 19:37:00,41.2,19.8,30.06,NNW,338,4.3,4.3,42,0.00,CLR,,0.88,WeatherDisplay:10.37,2014-02-27 01:37:00,
2014-02-26 19:42:00,41.0,18.5,30.06,NNE,22,9.2,9.2,40,0.00,CLR,,0.88,WeatherDisplay:10.37,2014-02-27 01:42:00,
2014-02-26 19:47:00,40.8,18.3,30.06,North,0,17.3,17.3,40,0.00,CLR,,0.88,WeatherDisplay:10.37,2014-02-27 01:47:00,
2014-02-26 19:52:00,40.6,18.2,30.06,North,0,5.8,5.8,40,0.00,CLR,,0.88,WeatherDisplay:10.37,2014-02-27 01:52:00,
2014-02-26 19:57:00,40.5,18.0,30.06,NNW,338,10.4,10.4,40,0.00,CLR,,0.88,WeatherDisplay:10.37,2014-02-27 01:57:00,
2014-02-26 20:02:00,40.5,18.6,30.06,NNW,338,4.6,4.6,41,0.00,CLR,,0.88,WeatherDisplay:10.37,2014-02-27 02:02:00,
2014-02-26 20:07:00,40.3,18.4,30.06,North,0,5.8,5.8,41,0.00,CLR,,0.88,WeatherDisplay:10.37,2014-02-27 02:07:00,
2014-02-26 20:12:00,40.1,18.3,30.06,NNE,22,5.4,5.4,41,0.00,CLR,,0.88,WeatherDisplay:10.37,2014-02-27 02:12:00,
2014-02-26 20:17:00,39.9,18.1,30.06,NW,315,6.9,6.9,41,0.00,CLR,,0.88,WeatherDisplay:10.37,2014-02-27 02:17:00,
2014-02-26 20:22:00,39.6,17.2,30.06,North,0,5.8,5.8,40,0.00,CLR,,0.88,WeatherDisplay:10.37,2014-02-27 02:22:00,
2014-02-26 20:27:00,39.4,17.0,30.06,North,0,10.4,10.4,40,0.00,CLR,,0.88,WeatherDisplay:10.37,2014-02-27 02:27:00,
2014-02-26 20:32:00,39.2,16.9,30.09,North,0,11.8,11.8,40,0.00,CLR,,0.88,WeatherDisplay:10.37,2014-02-27 02:32:00,
2014-02-26 20:37:00,39.0,16.7,30.09,North,0,11.5,11.5,40,0.00,CLR,,0.88,WeatherDisplay:10.37,2014-02-27 02:37:00,
2014-02-26 20:42:00,38.8,17.1,30.09,NNE,22,8.1,8.1,41,0.00,CLR,,0.88,WeatherDisplay:10.37,2014-02-27 02:42:00,
2014-02-26 20:47:00,38.7,16.4,30.09,North,0,10.9,10.9,40,0.00,CLR,,0.88,WeatherDisplay:10.37,2014-02-27 02:47:00,
2014-02-26 20:52:00,38.5,16.8,30.09,WNW,292,6.9,6.9,41,0.00,CLR,,0.88,WeatherDisplay:10.37,2014-02-27 02:52:00,
2014-02-26 20:57:00,38.5,16.8,30.09,NNE,22,8.1,8.1,41,0.00,CLR,,0.88,WeatherDisplay:10.37,2014-02-27 02:57:00,
2014-02-26 21:02:00,38.3,16.6,30.09,NNW,338,5.8,5.8,41,0.00,CLR,,0.88,WeatherDisplay:10.37,2014-02-27 03:02:00,
2014-02-26 21:07:00,38.1,16.5,30.09,NNW,338,1.6,2.4,41,0.00,CLR,,0.88,WeatherDisplay:10.37,2014-02-27 03:07:00,
2014-02-26 21:12:00,38.1,17.0,30.09,NNW,338,5.8,5.8,42,0.00,CLR,,0.88,WeatherDisplay:10.37,2014-02-27 03:12:00,
2014-02-26 21:17:00,37.9,16.3,30.09,North,0,8.1,8.1,41,0.00,CLR,,0.88,WeatherDisplay:10.37,2014-02-27 03:17:00,
2014-02-26 21:22:00,37.6,15.4,30.09,NNW,338,9.2,9.2,40,0.00,CLR,,0.88,WeatherDisplay:10.37,2014-02-27 03:22:00,
2014-02-26 21:27:00,37.6,15.4,30.09,North,0,8.1,8.1,40,0.00,CLR,,0.88,WeatherDisplay:10.37,2014-02-27 03:27:00,
2014-02-26 21:32:00,37.4,15.8,30.09,NNE,22,4.6,4.6,41,0.00,CLR,,0.88,WeatherDisplay:10.37,2014-02-27 03:32:00,
2014-02-26 21:38:00,37.4,15.8,30.09,NNE,22,0.0,0.0,41,0.00,CLR,,0.88,WeatherDisplay:10.37,2014-02-27 03:38:00,
2014-02-26 21:43:00,37.2,15.6,30.09,North,0,5.4,5.4,41,0.00,CLR,,0.88,WeatherDisplay:10.37,2014-02-27 03:43:00,
2014-02-26 21:48:00,37.2,15.6,30.09,North,0,4.6,4.6,41,0.00,CLR,,0.88,WeatherDisplay:10.37,2014-02-27 03:48:00,
2014-02-26 21:53:00,37.2,16.2,30.09,North,0,5.8,5.8,42,0.00,CLR,,0.88,WeatherDisplay:10.37,2014-02-27 03:53:00,
2014-02-26 21:58:00,37.0,16.0,30.09,North,0,5.8,5.8,42,0.00,CLR,,0.88,WeatherDisplay:10.37,2014-02-27 03:58:00,
2014-02-26 22:03:00,37.0,15.5,30.09,North,0,2.3,2.3,41,0.00,CLR,,0.88,WeatherDisplay:10.37,2014-02-27 04:03:00,
2014-02-26 22:08:00,37.0,15.5,30.09,North,0,4.6,4.6,41,0.00,CLR,,0.88,WeatherDisplay:10.37,2014-02-27 04:08:00,
2014-02-26 22:13:00,37.0,15.5,30.09,North,0,5.8,5.8,41,0.00,CLR,,0.88,WeatherDisplay:10.37,2014-02-27 04:13:00,
2014-02-26 22:18:00,37.0,15.5,30.09,ENE,68,1.1,0.0,41,0.00,CLR,,0.88,WeatherDisplay:10.37,2014-02-27 04:18:00,
2014-02-26 22:23:00,37.0,15.5,30.09,NW,315,5.8,5.8,41,0.00,CLR,,0.88,WeatherDisplay:10.37,2014-02-27 04:23:00,
2014-02-26 22:28:00,36.9,15.3,30.09,North,0,2.3,2.3,41,0.00,CLR,,0.88,WeatherDisplay:10.37,2014-02-27 04:28:00,
2014-02-26 22:33:00,36.9,15.3,30.09,NW,315,7.4,7.4,41,0.00,CLR,,0.88,WeatherDisplay:10.37,2014-02-27 04:33:00,
2014-02-26 22:38:00,36.9,15.9,30.09,North,0,5.8,5.8,42,0.00,CLR,,0.88,WeatherDisplay:10.37,2014-02-27 04:38:00,
2014-02-26 22:43:00,36.7,15.7,30.09,NNW,338,3.5,0.0,42,0.00,CLR,,0.88,WeatherDisplay:10.37,2014-02-27 04:43:00,
2014-02-26 22:48:00,36.7,15.7,30.12,NNW,338,6.9,0.0,42,0.00,CLR,,0.88,WeatherDisplay:10.37,2014-02-27 04:48:00,
2014-02-26 22:53:00,36.7,15.7,30.12,North,0,3.8,3.8,42,0.00,CLR,,0.88,WeatherDisplay:10.37,2014-02-27 04:53:00,
2014-02-26 22:58:00,36.5,15.0,30.12,NNE,22,5.8,5.8,41,0.00,CLR,,0.88,WeatherDisplay:10.37,2014-02-27 04:58:00,
2014-02-26 23:01:00,36.5,15.0,30.12,North,0,4.6,4.6,41,0.00,CLR,,0.88,WeatherDisplay:10.37,2014-02-27 05:01:00,
2014-02-26 23:05:00,36.5,15.0,30.12,North,0,1.1,1.4,41,0.00,CLR,,0.88,WeatherDisplay:10.37,2014-02-27 05:05:00,
2014-02-26 23:10:00,36.5,15.0,30.12,North,0,5.8,5.8,41,0.00,CLR,,0.88,WeatherDisplay:10.37,2014-02-27 05:10:00,
2014-02-26 23:15:00,36.3,14.8,30.09,NW,315,5.9,5.9,41,0.00,CLR,,0.88,WeatherDisplay:10.37,2014-02-27 05:15:00,
2014-02-26 23:20:00,36.3,14.8,30.09,North,0,3.5,3.5,41,0.00,CLR,,0.88,WeatherDisplay:10.37,2014-02-27 05:20:00,
2014-02-26 23:25:00,36.3,15.4,30.09,North,0,3.5,3.5,42,0.00,CLR,,0.88,WeatherDisplay:10.37,2014-02-27 05:25:00,
2014-02-26 23:30:00,36.3,15.4,30.09,NNW,338,5.8,5.8,42,0.00,CLR,,0.88,WeatherDisplay:10.37,2014-02-27 05:30:00,
2014-02-26 23:35:00,36.1,15.2,30.09,North,0,3.5,3.5,42,0.00,CLR,,0.88,WeatherDisplay:10.37,2014-02-27 05:35:00,
2014-02-26 23:40:00,36.1,14.7,30.09,NE,45,5.8,5.8,41,0.00,CLR,,0.88,WeatherDisplay:10.37,2014-02-27 05:40:00,
2014-02-26 23:45:00,36.1,14.7,30.06,North,0,8.1,8.1,41,0.00,CLR,,0.88,WeatherDisplay:10.37,2014-02-27 05:45:00,
2014-02-26 23:50:00,36.1,14.7,30.06,NNE,22,5.8,5.8,41,0.00,CLR,,0.88,WeatherDisplay:10.37,2014-02-27 05:50:00,
2014-02-26 23:55:00,36.1,14.7,30.06,NNW,338,4.6,4.7,41,0.00,CLR,,0.88,WeatherDisplay:10.37,2014-02-27 05:55:00,